Year,Month,Day,Hour,Minute,Value (Times are PST for temperature in C)
2016,09,12,00,00,12.40
2016,09,12,00,01,12.40
2016,09,12,00,02,12.40
2016,09,12,00,10,12.30
2016,09,12,00,11,12.30
2016,09,12,00,12,12.30
2016,09,12,00,13,12.20
2016,09,12,00,14,12.20
2016,09,12,00,15,12.20
2016,09,12,00,16,12.20
2016,09,12,00,17,12.20
2016,09,12,00,18,12.10
2016,09,12,00,19,12.10
2016,09,12,00,20,12.10
2016,09,12,00,21,12.10
2016,09,12,01,10,13.20
2016,09,12,01,11,13.20
2016,09,12,01,12,13.20
2016,09,12,01,13,13.20
2016,09,12,01,14,13.20
2016,09,12,02,10,13.10
2016,09,12,02,11,13.10
2016,09,12,02,12,13.20
2016,09,12,02,13,13.20
2016,09,12,02,14,13.20
2016,09,12,02,15,13.20
2016,09,12,02,16,13.20
2016,09,12,02,17,13.20
2016,09,12,02,18,13.20
2016,09,12,02,19,13.20
2016,09,12,02,20,13.30
2016,09,12,02,21,13.30
2016,09,12,02,22,13.30
2016,09,12,02,23,13.30
2016,09,12,02,24,13.30
2016,09,12,02,26,13.30
2016,09,12,02,27,13.30
2016,09,12,02,28,13.30
2016,09,12,02,29,13.30
2016,09,12,02,31,13.30
2016,09,12,02,32,13.30
2016,09,12,02,33,13.30
2016,09,12,02,34,13.30
2016,09,12,02,36,13.30
2016,09,12,02,37,13.40
2016,09,12,02,38,13.40
2016,09,12,02,39,13.40
2016,09,12,02,41,13.40
2016,09,12,02,42,13.40
2016,09,12,02,43,13.40
2016,09,12,02,44,13.40
2016,09,12,02,46,13.40
2016,09,12,02,47,13.40
2016,09,12,02,48,13.40
2016,09,12,02,49,13.40
2016,09,12,02,51,13.40
2016,09,12,02,52,13.40
2016,09,12,02,53,13.40
2016,09,12,02,54,13.30
2016,09,12,02,56,13.30
2016,09,12,02,57,13.30
2016,09,12,02,58,13.30
2016,09,12,02,59,13.30
2016,09,12,03,01,13.30
2016,09,12,03,02,13.30
2016,09,12,03,03,13.30
2016,09,12,03,04,13.30
2016,09,12,03,06,13.30
2016,09,12,03,07,13.30
2016,09,12,03,08,13.20
2016,09,12,03,09,13.20
2016,09,12,03,11,13.20
2016,09,12,03,12,13.20
2016,09,12,03,13,13.20
2016,09,12,03,14,13.20
2016,09,12,03,16,13.20
2016,09,12,03,17,13.20
2016,09,12,03,18,13.20
2016,09,12,03,19,13.20
2016,09,12,03,21,13.20
2016,09,12,03,22,13.20
2016,09,12,03,24,13.20
2016,09,12,03,26,13.10
2016,09,12,03,27,13.10
2016,09,12,03,28,13.10
2016,09,12,03,29,13.10
2016,09,12,03,31,13.20
2016,09,12,03,32,13.20
2016,09,12,03,33,13.20
2016,09,12,03,34,13.20
2016,09,12,04,10,13.20
2016,09,12,04,11,13.20
2016,09,12,04,12,13.20
2016,09,12,04,13,13.20
2016,09,12,04,14,13.20
2016,09,12,04,15,13.20
2016,09,12,04,16,13.20
2016,09,12,04,17,13.10
2016,09,12,04,18,13.10
2016,09,12,04,19,13.10
2016,09,12,04,20,13.10
2016,09,12,04,21,13.10
2016,09,12,04,22,13.00
2016,09,12,04,23,13.00
2016,09,12,04,24,13.00
2016,09,12,04,25,13.00
2016,09,12,04,26,12.90
2016,09,12,04,27,12.90
2016,09,12,04,28,12.90
2016,09,12,04,29,12.80
2016,09,12,04,31,12.80
2016,09,12,04,33,12.80
2016,09,12,04,34,12.80
2016,09,12,04,36,12.70
2016,09,12,04,37,12.70
2016,09,12,04,38,12.70
2016,09,12,04,39,12.70
2016,09,12,04,41,12.60
2016,09,12,04,42,12.60
2016,09,12,04,43,12.60
2016,09,12,04,44,12.60
2016,09,12,04,46,12.60
2016,09,12,04,47,12.60
2016,09,12,04,48,12.50
2016,09,12,04,49,12.50
2016,09,12,04,51,12.50
2016,09,12,04,52,12.60
2016,09,12,04,53,12.60
2016,09,12,04,54,12.60
2016,09,12,04,56,12.60
2016,09,12,04,57,12.60
2016,09,12,04,58,12.50
2016,09,12,04,59,12.50
2016,09,12,05,01,12.50
2016,09,12,05,02,12.40
2016,09,12,05,03,12.40
2016,09,12,05,04,12.30
2016,09,12,05,06,12.30
2016,09,12,05,07,12.30
2016,09,12,05,08,12.30
2016,09,12,05,09,12.30
2016,09,12,05,11,12.20
2016,09,12,05,12,12.10
2016,09,12,05,13,12.10
2016,09,12,05,14,12.10
2016,09,12,05,16,12.00
2016,09,12,05,17,11.90
2016,09,12,05,18,11.90
2016,09,12,05,19,11.90
2016,09,12,05,21,11.80
2016,09,12,05,22,11.80
2016,09,12,05,23,11.80
2016,09,12,05,24,11.80
2016,09,12,05,26,11.70
2016,09,12,05,27,11.60
2016,09,12,05,28,11.60
2016,09,12,05,29,11.60
2016,09,12,05,31,11.60
2016,09,12,05,32,11.60
2016,09,12,05,33,11.40
2016,09,12,05,34,11.40
2016,09,12,05,36,11.40
2016,09,12,05,37,11.40
2016,09,12,05,38,11.30
2016,09,12,05,39,11.30
2016,09,12,05,41,11.20
2016,09,12,05,42,11.20
2016,09,12,05,43,11.20
2016,09,12,05,44,11.20
2016,09,12,05,46,11.10
2016,09,12,05,47,11.10
2016,09,12,05,48,11.10
2016,09,12,05,49,11.20
2016,09,12,05,51,11.30
2016,09,12,05,52,11.40
2016,09,12,05,53,11.40
2016,09,12,05,54,11.60
2016,09,12,05,56,11.80
2016,09,12,05,57,11.80
2016,09,12,05,58,11.90
2016,09,12,05,59,12.00
2016,09,12,06,00,12.10
2016,09,12,06,01,12.20
2016,09,12,06,02,12.30
2016,09,12,06,03,12.30
2016,09,12,06,04,12.40
2016,09,12,06,06,12.60
2016,09,12,06,07,12.60
2016,09,12,06,08,12.70
2016,09,12,06,09,12.70
2016,09,12,06,11,12.70
2016,09,12,06,12,12.80
2016,09,12,06,13,12.80
2016,09,12,06,14,12.80
2016,09,12,06,15,12.80
2016,09,12,06,16,12.80
2016,09,12,06,17,12.80
2016,09,12,06,18,12.80
2016,09,12,06,19,12.80
2016,09,12,06,20,12.80
2016,09,12,06,21,12.80
2016,09,12,06,22,12.80
2016,09,12,06,23,12.80
2016,09,12,06,24,12.80
2016,09,12,06,25,12.80
2016,09,12,06,26,12.80
2016,09,12,06,27,12.80
2016,09,12,06,28,12.80
2016,09,12,06,29,12.80
2016,09,12,06,30,12.80
2016,09,12,06,31,12.90
2016,09,12,06,32,12.90
2016,09,12,06,33,12.90
2016,09,12,06,34,12.90
2016,09,12,06,35,12.90
2016,09,12,06,36,12.90
2016,09,12,06,37,12.90
2016,09,12,06,38,12.80
2016,09,12,06,39,12.80
2016,09,12,06,40,12.80
2016,09,12,06,41,12.80
2016,09,12,06,42,12.80
2016,09,12,06,43,12.80
2016,09,12,06,44,12.80
2016,09,12,06,45,12.80
2016,09,12,06,46,12.70
2016,09,12,06,47,12.70
2016,09,12,06,48,12.70
2016,09,12,06,49,12.70
2016,09,12,06,50,12.70
2016,09,12,06,51,12.70
2016,09,12,06,52,12.70
2016,09,12,06,53,12.70
2016,09,12,06,54,12.80
2016,09,12,06,55,12.80
2016,09,12,06,56,12.80
2016,09,12,06,57,12.80
2016,09,12,06,58,12.80
2016,09,12,06,59,12.80
2016,09,12,07,00,12.80
2016,09,12,07,01,12.80
2016,09,12,07,02,12.80
2016,09,12,07,03,12.80
2016,09,12,07,04,12.80
2016,09,12,07,05,12.80
2016,09,12,07,06,12.80
2016,09,12,07,07,12.80
2016,09,12,07,08,12.80
2016,09,12,07,09,12.80
2016,09,12,07,10,12.80
2016,09,12,07,11,12.80
2016,09,12,07,12,12.80
2016,09,12,07,13,12.80
2016,09,12,07,14,12.80
2016,09,12,07,15,12.80
2016,09,12,07,16,12.90
2016,09,12,07,17,12.90
2016,09,12,07,18,13.00
2016,09,12,07,19,13.00
2016,09,12,07,20,13.10
2016,09,12,07,21,13.20
2016,09,12,07,22,13.20
2016,09,12,07,23,13.30
2016,09,12,07,24,13.30
2016,09,12,07,25,13.30
2016,09,12,07,26,13.30
2016,09,12,07,27,13.40
2016,09,12,07,29,13.50
2016,09,12,07,31,13.60
2016,09,12,07,32,13.70
2016,09,12,07,33,13.70
2016,09,12,07,34,13.70
2016,09,12,07,36,13.80
2016,09,12,07,37,13.90
2016,09,12,07,38,14.00
2016,09,12,07,39,14.00
2016,09,12,07,41,14.10
2016,09,12,07,42,14.10
2016,09,12,07,43,14.10
2016,09,12,07,44,14.10
2016,09,12,07,46,14.10
2016,09,12,07,47,14.10
2016,09,12,07,48,14.10
2016,09,12,07,49,14.10
2016,09,12,07,51,14.20
2016,09,12,07,52,14.20
2016,09,12,07,53,14.20
2016,09,12,07,54,14.20
2016,09,12,07,56,14.30
2016,09,12,07,57,14.30
2016,09,12,07,58,14.40
2016,09,12,07,59,14.40
2016,09,12,08,01,14.40
2016,09,12,08,02,14.40
2016,09,12,08,03,14.40
2016,09,12,08,04,14.50
2016,09,12,08,06,14.60
2016,09,12,08,07,14.60
2016,09,12,08,08,14.60
2016,09,12,08,09,14.70
2016,09,12,08,11,14.80
2016,09,12,08,12,14.80
2016,09,12,08,13,14.80
2016,09,12,08,14,14.80
2016,09,12,08,15,14.80
2016,09,12,08,17,14.90
2016,09,12,08,18,15.00
2016,09,12,08,19,15.10
2016,09,12,08,21,15.20
2016,09,12,08,22,15.30
2016,09,12,08,23,15.30
2016,09,12,08,24,15.30
2016,09,12,08,26,15.40
2016,09,12,08,27,15.50
2016,09,12,08,28,15.50
2016,09,12,08,29,15.50
2016,09,12,08,31,15.60
2016,09,12,08,32,15.70
2016,09,12,08,33,15.70
2016,09,12,08,34,15.70
2016,09,12,08,36,15.70
2016,09,12,08,37,15.70
2016,09,12,08,38,15.70
2016,09,12,08,39,15.60
2016,09,12,08,41,15.50
2016,09,12,08,42,15.50
2016,09,12,08,43,15.50
2016,09,12,08,44,15.40
2016,09,12,08,46,15.30
2016,09,12,08,47,15.40
2016,09,12,08,48,15.40
2016,09,12,08,49,15.40
2016,09,12,08,51,15.30
2016,09,12,08,52,15.30
2016,09,12,08,53,15.30
2016,09,12,08,54,15.30
2016,09,12,08,55,15.30
2016,09,12,08,56,15.30
2016,09,12,08,57,15.30
2016,09,12,08,58,15.30
2016,09,12,08,59,15.30
2016,09,12,09,00,15.30
2016,09,12,09,01,15.30
2016,09,12,09,02,15.30
2016,09,12,09,03,15.30
2016,09,12,09,04,15.30
2016,09,12,09,06,15.40
2016,09,12,09,07,15.40
2016,09,12,09,08,15.40
2016,09,12,09,09,15.40
2016,09,12,09,10,15.40
2016,09,12,09,11,15.40
2016,09,12,09,12,15.50
2016,09,12,09,13,15.50
2016,09,12,09,14,15.50
2016,09,12,09,15,15.50
2016,09,12,09,16,15.50
2016,09,12,09,17,15.60
2016,09,12,09,18,15.60
2016,09,12,09,19,15.70
2016,09,12,09,20,15.70
2016,09,12,09,21,15.80
2016,09,12,09,22,15.80
2016,09,12,09,23,15.80
2016,09,12,09,24,15.80
2016,09,12,09,25,15.80
2016,09,12,09,26,15.90
2016,09,12,09,27,15.90
2016,09,12,09,28,15.90
2016,09,12,09,29,15.90
2016,09,12,09,30,16.10
2016,09,12,09,31,16.10
2016,09,12,09,32,16.10
2016,09,12,09,33,16.20
2016,09,12,09,34,16.30
2016,09,12,09,35,16.40
2016,09,12,09,36,16.40
2016,09,12,09,37,16.40
2016,09,12,09,38,16.40
2016,09,12,09,39,16.40
2016,09,12,09,40,16.40
2016,09,12,09,41,16.30
2016,09,12,09,42,16.30
2016,09,12,09,43,16.30
2016,09,12,09,44,16.30
2016,09,12,09,45,16.40
2016,09,12,09,46,16.40
2016,09,12,09,47,16.40
2016,09,12,09,48,16.60
2016,09,12,09,49,16.70
2016,09,12,09,50,16.70
2016,09,12,09,51,16.70
2016,09,12,09,52,16.80
2016,09,12,09,53,16.90
2016,09,12,09,54,17.00
2016,09,12,09,55,17.00
2016,09,12,09,56,17.10
2016,09,12,09,57,17.20
2016,09,12,09,58,17.20
2016,09,12,09,59,17.20
2016,09,12,10,00,17.20
2016,09,12,10,01,17.20
2016,09,12,10,02,17.30
2016,09,12,10,03,17.30
2016,09,12,10,04,17.30
2016,09,12,10,05,17.30
2016,09,12,10,07,17.30
2016,09,12,10,08,17.30
2016,09,12,10,09,17.20
2016,09,12,10,10,17.30
2016,09,12,10,11,17.30
2016,09,12,10,12,17.30
2016,09,12,10,13,17.30
2016,09,12,10,14,17.30
2016,09,12,10,15,17.30
2016,09,12,10,16,17.40
2016,09,12,10,17,17.40
2016,09,12,10,18,17.40
2016,09,12,10,19,17.30
2016,09,12,10,20,17.30
2016,09,12,10,21,17.30
2016,09,12,10,22,17.30
2016,09,12,10,23,17.40
2016,09,12,10,24,17.30
2016,09,12,10,26,17.20
2016,09,12,10,27,17.10
2016,09,12,10,28,17.00
2016,09,12,10,29,17.00
2016,09,12,10,30,17.00
2016,09,12,10,32,16.90
2016,09,12,10,33,16.80
2016,09,12,10,34,16.80
2016,09,12,10,36,16.70
2016,09,12,10,37,16.70
2016,09,12,10,38,16.80
2016,09,12,10,39,16.80
2016,09,12,10,41,16.70
2016,09,12,10,42,16.70
2016,09,12,10,43,16.70
2016,09,12,10,44,16.80
2016,09,12,10,46,16.90
2016,09,12,10,47,16.90
2016,09,12,10,48,16.90
2016,09,12,10,49,17.00
2016,09,12,10,51,16.90
2016,09,12,10,52,16.90
2016,09,12,10,53,16.90
2016,09,12,10,54,16.90
2016,09,12,10,56,16.90
2016,09,12,10,57,16.90
2016,09,12,10,58,16.90
2016,09,12,10,59,16.90
2016,09,12,11,01,17.00
2016,09,12,11,02,17.00
2016,09,12,11,10,17.20
2016,09,12,11,11,17.20
2016,09,12,11,12,17.20
2016,09,12,11,13,17.30
2016,09,12,11,14,17.30
2016,09,12,11,15,17.30
2016,09,12,11,16,17.30
2016,09,12,11,17,17.30
2016,09,12,11,18,17.30
2016,09,12,11,19,17.30
2016,09,12,11,20,17.30
2016,09,12,11,21,17.30
2016,09,12,11,22,17.30
2016,09,12,11,23,17.30
2016,09,12,11,24,17.30
2016,09,12,11,25,17.30
2016,09,12,11,27,17.40
2016,09,12,11,28,17.50
2016,09,12,11,29,17.50
2016,09,12,11,31,17.50
2016,09,12,11,32,17.50
2016,09,12,11,33,17.60
2016,09,12,11,34,17.60
2016,09,12,11,36,17.60
2016,09,12,11,37,17.60
2016,09,12,11,38,17.60
2016,09,12,11,39,17.60
2016,09,12,11,41,17.70
2016,09,12,11,42,17.70
2016,09,12,11,43,17.70
2016,09,12,11,44,17.70
2016,09,12,11,46,17.70
2016,09,12,11,47,17.70
2016,09,12,11,48,17.70
2016,09,12,11,49,17.80
2016,09,12,11,51,17.80
2016,09,12,11,52,17.90
2016,09,12,11,53,17.90
2016,09,12,11,54,17.90
2016,09,12,11,56,17.90
2016,09,12,11,57,17.90
2016,09,12,11,58,17.90
2016,09,12,11,59,17.90
2016,09,12,12,01,18.10
2016,09,12,12,02,18.10
2016,09,12,12,03,18.20
2016,09,12,12,04,18.20
2016,09,12,12,06,18.20
2016,09,12,12,07,18.20
2016,09,12,12,08,18.20
2016,09,12,12,09,18.30
2016,09,12,12,11,18.30
2016,09,12,12,12,18.40
2016,09,12,12,13,18.40
2016,09,12,12,14,18.50
2016,09,12,12,16,18.60
2016,09,12,12,17,18.60
2016,09,12,12,18,18.70
2016,09,12,12,19,18.70
2016,09,12,12,21,18.70
2016,09,12,12,22,18.70
2016,09,12,12,23,18.70
2016,09,12,12,24,18.70
2016,09,12,12,26,18.60
2016,09,12,12,27,18.70
2016,09,12,12,28,18.70
2016,09,12,12,29,18.60
2016,09,12,12,31,18.60
2016,09,12,12,32,18.70
2016,09,12,12,33,18.60
2016,09,12,12,34,18.60
2016,09,12,12,36,18.70
2016,09,12,12,37,18.60
2016,09,12,12,38,18.60
2016,09,12,12,39,18.60
2016,09,12,12,41,18.60
2016,09,12,12,42,18.60
2016,09,12,12,43,18.60
2016,09,12,12,44,18.50
2016,09,12,12,46,18.50
2016,09,12,12,47,18.50
2016,09,12,12,48,18.40
2016,09,12,12,49,18.40
2016,09,12,12,51,18.30
2016,09,12,12,52,18.30
2016,09,12,12,53,18.30
2016,09,12,12,54,18.20
2016,09,12,12,55,18.20
2016,09,12,12,56,18.20
2016,09,12,12,57,18.20
2016,09,12,12,58,18.20
2016,09,12,12,59,18.20
2016,09,12,13,00,18.20
2016,09,12,13,01,18.20
2016,09,12,13,02,18.10
2016,09,12,13,03,18.10
2016,09,12,13,04,18.10
2016,09,12,13,06,18.10
2016,09,12,13,07,17.90
2016,09,12,13,08,18.10
2016,09,12,13,09,18.10
2016,09,12,13,11,18.20
2016,09,12,13,12,18.20
2016,09,12,13,13,18.20
2016,09,12,13,14,18.20
2016,09,12,13,15,18.30
2016,09,12,13,16,18.30
2016,09,12,13,17,18.40
2016,09,12,13,18,18.50
2016,09,12,13,19,18.60
2016,09,12,13,20,18.60
2016,09,12,13,21,18.70
2016,09,12,13,22,18.70
2016,09,12,13,23,18.80
2016,09,12,13,24,18.80
2016,09,12,13,25,18.90
2016,09,12,13,26,18.90
2016,09,12,13,27,18.90
2016,09,12,13,28,18.90
2016,09,12,13,29,18.90
2016,09,12,13,30,19.10
2016,09,12,13,31,19.10
2016,09,12,13,32,19.10
2016,09,12,13,33,19.10
2016,09,12,13,34,19.10
2016,09,12,13,35,19.20
2016,09,12,13,36,19.20
2016,09,12,13,37,19.30
2016,09,12,13,38,19.30
2016,09,12,13,39,19.40
2016,09,12,13,40,19.50
2016,09,12,13,41,19.50
2016,09,12,13,42,19.50
2016,09,12,13,43,19.60
2016,09,12,13,44,19.60
2016,09,12,13,45,19.70
2016,09,12,13,46,19.70
2016,09,12,13,47,19.70
2016,09,12,13,48,19.70
2016,09,12,13,49,19.70
2016,09,12,13,50,19.70
2016,09,12,13,51,19.70
2016,09,12,13,52,19.70
2016,09,12,13,53,19.70
2016,09,12,13,54,19.70
2016,09,12,13,56,19.70
2016,09,12,13,57,19.70
2016,09,12,13,58,19.70
2016,09,12,13,59,19.70
2016,09,12,14,00,19.80
2016,09,12,14,01,19.80
2016,09,12,14,02,19.80
2016,09,12,14,03,19.80
2016,09,12,14,04,19.80
2016,09,12,14,05,19.80
2016,09,12,14,06,19.70
2016,09,12,14,07,19.70
2016,09,12,14,08,19.70
2016,09,12,14,09,19.70
2016,09,12,14,10,19.70
2016,09,12,14,11,19.70
2016,09,12,14,12,19.70
2016,09,12,14,13,19.60
2016,09,12,14,14,19.70
2016,09,12,14,15,19.70
2016,09,12,14,16,19.70
2016,09,12,14,17,19.70
2016,09,12,14,18,19.70
2016,09,12,14,19,19.70
2016,09,12,14,20,19.80
2016,09,12,14,21,19.80
2016,09,12,14,22,19.80
2016,09,12,14,23,19.80
2016,09,12,14,24,19.80
2016,09,12,14,26,19.80
2016,09,12,14,27,19.90
2016,09,12,14,28,19.90
2016,09,12,14,29,19.90
2016,09,12,14,31,19.90
2016,09,12,14,32,20.10
2016,09,12,14,33,19.90
2016,09,12,14,34,19.90
2016,09,12,14,36,19.90
2016,09,12,14,37,19.80
2016,09,12,14,38,19.70
2016,09,12,14,39,19.70
2016,09,12,14,41,19.60
2016,09,12,14,42,19.50
2016,09,12,14,43,19.50
2016,09,12,14,44,19.50
2016,09,12,14,46,19.50
2016,09,12,14,47,19.60
2016,09,12,14,48,19.60
2016,09,12,14,49,19.70
2016,09,12,14,51,19.70
2016,09,12,14,52,19.70
2016,09,12,14,53,19.70
2016,09,12,14,54,19.70
2016,09,12,14,56,19.60
2016,09,12,14,57,19.60
2016,09,12,14,58,19.50
2016,09,12,14,59,19.50
2016,09,12,15,01,19.50
2016,09,12,15,02,19.40
2016,09,12,15,03,19.40
2016,09,12,15,04,19.40
2016,09,12,15,06,19.30
2016,09,12,15,07,19.30
2016,09,12,15,08,19.30
2016,09,12,15,09,19.30
2016,09,12,15,11,19.30
2016,09,12,15,12,19.30
2016,09,12,15,13,19.30
2016,09,12,15,14,19.40
2016,09,12,15,16,19.40
2016,09,12,15,17,19.40
2016,09,12,15,18,19.50
2016,09,12,15,19,19.50
2016,09,12,15,21,19.60
2016,09,12,15,22,19.60
2016,09,12,15,23,19.60
2016,09,12,15,24,19.60
2016,09,12,15,26,19.70
2016,09,12,15,27,19.70
2016,09,12,15,28,19.70
2016,09,12,15,29,19.70
2016,09,12,15,31,19.80
2016,09,12,15,32,19.80
2016,09,12,15,33,19.90
2016,09,12,15,34,19.90
2016,09,12,15,36,19.90
2016,09,12,15,37,19.90
2016,09,12,15,38,19.90
2016,09,12,15,39,19.90
2016,09,12,15,41,19.80
2016,09,12,15,42,19.80
2016,09,12,15,43,19.80
2016,09,12,15,44,19.70
2016,09,12,15,45,19.70
2016,09,12,15,46,19.70
2016,09,12,15,47,19.60
2016,09,12,15,48,19.60
2016,09,12,15,49,19.60
2016,09,12,15,51,19.50
2016,09,12,15,52,19.50
2016,09,12,15,53,19.50
2016,09,12,15,54,19.50
2016,09,12,15,55,19.50
2016,09,12,15,56,19.40
2016,09,12,15,57,19.40
2016,09,12,15,58,19.40
2016,09,12,15,59,19.40
2016,09,12,16,00,19.40
2016,09,12,16,01,19.40
2016,09,12,16,02,19.40
2016,09,12,16,03,19.40
2016,09,12,16,04,19.40
2016,09,12,16,06,19.40
2016,09,12,16,07,19.40
2016,09,12,16,08,19.40
2016,09,12,16,09,19.40
2016,09,12,16,11,19.50
2016,09,12,16,12,19.50
2016,09,12,16,13,19.60
2016,09,12,16,14,19.70
2016,09,12,16,15,19.70
2016,09,12,16,16,19.70
2016,09,12,16,17,19.70
2016,09,12,16,18,19.80
2016,09,12,16,19,19.80
2016,09,12,16,20,19.80
2016,09,12,16,21,19.80
2016,09,12,16,22,19.80
2016,09,12,16,23,19.90
2016,09,12,16,24,19.90
2016,09,12,16,25,19.90
2016,09,12,16,26,19.90
2016,09,12,16,27,19.90
2016,09,12,16,28,19.90
2016,09,12,16,29,19.90
2016,09,12,16,30,19.90
2016,09,12,16,31,19.90
2016,09,12,16,32,19.90
2016,09,12,16,33,20.10
2016,09,12,16,34,20.10
2016,09,12,16,35,20.10
2016,09,12,16,36,20.20
2016,09,12,16,37,20.20
2016,09,12,16,38,20.20
2016,09,12,16,39,20.20
2016,09,12,16,40,20.20
2016,09,12,16,41,20.20
2016,09,12,16,42,20.30
2016,09,12,16,43,20.30
2016,09,12,16,44,20.40
2016,09,12,16,45,20.40
2016,09,12,16,46,20.50
2016,09,12,16,47,20.50
2016,09,12,16,48,20.60
2016,09,12,16,49,20.60
2016,09,12,16,50,20.60
2016,09,12,16,51,20.70
2016,09,12,16,52,20.70
2016,09,12,16,53,20.60
2016,09,12,16,54,20.60
2016,09,12,16,55,20.60
2016,09,12,16,56,20.60
2016,09,12,16,57,20.60
2016,09,12,16,58,20.60
2016,09,12,16,59,20.60
2016,09,12,17,00,20.60
2016,09,12,17,01,20.60
2016,09,12,17,02,20.60
2016,09,12,17,03,20.50
2016,09,12,17,04,20.50
2016,09,12,17,05,20.40
2016,09,12,17,06,20.40
2016,09,12,17,07,20.30
2016,09,12,17,08,20.30
2016,09,12,17,09,20.30
2016,09,12,17,10,20.20
2016,09,12,17,11,20.20
2016,09,12,17,12,20.20
2016,09,12,17,13,20.20
2016,09,12,17,14,20.20
2016,09,12,17,15,20.20
2016,09,12,17,16,20.30
2016,09,12,17,17,20.30
2016,09,12,17,18,20.30
2016,09,12,17,19,20.30
2016,09,12,17,20,20.30
2016,09,12,17,22,20.30
2016,09,12,17,23,20.30
2016,09,12,17,24,20.40
2016,09,12,17,26,20.30
2016,09,12,17,27,20.30
2016,09,12,17,28,20.30
2016,09,12,17,29,20.30
2016,09,12,17,31,20.30
2016,09,12,17,32,20.30
2016,09,12,17,33,20.20
2016,09,12,17,34,20.20
2016,09,12,17,36,20.20
2016,09,12,17,37,20.20
2016,09,12,17,38,20.20
2016,09,12,17,39,20.20
2016,09,12,17,41,20.20
2016,09,12,17,42,20.20
2016,09,12,17,43,20.20
2016,09,12,17,44,20.20
2016,09,12,17,46,20.20
2016,09,12,17,47,20.20
2016,09,12,17,48,20.20
2016,09,12,17,49,20.20
2016,09,12,17,51,20.20
2016,09,12,17,52,20.20
2016,09,12,17,53,20.20
2016,09,12,17,54,20.10
2016,09,12,17,56,19.90
2016,09,12,17,57,19.90
2016,09,12,17,58,19.90
2016,09,12,17,59,19.90
2016,09,12,18,01,19.80
2016,09,12,18,02,19.70
2016,09,12,18,03,19.60
2016,09,12,18,04,19.50
2016,09,12,18,06,19.20
2016,09,12,18,07,19.10
2016,09,12,18,08,19.10
2016,09,12,18,09,19.10
2016,09,12,18,11,18.90
2016,09,12,18,12,18.90
2016,09,12,18,13,18.90
2016,09,12,18,14,18.80
2016,09,12,18,16,18.70
2016,09,12,18,17,18.70
2016,09,12,18,18,18.70
2016,09,12,18,19,18.70
2016,09,12,18,21,18.70
2016,09,12,18,22,18.60
2016,09,12,18,23,18.60
2016,09,12,18,24,18.60
2016,09,12,18,26,18.50
2016,09,12,18,27,18.50
2016,09,12,18,28,18.50
2016,09,12,18,29,18.40
2016,09,12,18,31,18.30
2016,09,12,18,32,18.30
2016,09,12,18,33,18.30
2016,09,12,18,34,18.20
2016,09,12,18,36,18.20
2016,09,12,18,37,18.20
2016,09,12,18,38,18.20
2016,09,12,18,39,18.10
2016,09,12,18,41,18.10
2016,09,12,18,42,18.10
2016,09,12,18,43,17.90
2016,09,12,18,44,17.90
2016,09,12,18,46,17.90
2016,09,12,18,47,17.90
2016,09,12,18,48,17.90
2016,09,12,18,49,17.90
2016,09,12,18,51,17.80
2016,09,12,18,52,17.80
2016,09,12,18,53,17.70
2016,09,12,18,54,17.70
2016,09,12,18,55,17.70
2016,09,12,18,56,17.60
2016,09,12,18,57,17.60
2016,09,12,18,58,17.60
2016,09,12,18,59,17.50
2016,09,12,19,00,17.50
2016,09,12,19,01,17.40
2016,09,12,19,02,17.40
2016,09,12,19,03,17.30
2016,09,12,19,04,17.30
2016,09,12,19,06,17.30
2016,09,12,19,07,17.20
2016,09,12,19,08,17.10
2016,09,12,19,09,17.10
2016,09,12,19,11,17.00
2016,09,12,19,12,17.00
2016,09,12,19,13,16.90
2016,09,12,19,14,16.90
2016,09,12,19,15,16.90
2016,09,12,19,16,16.80
2016,09,12,19,17,16.80
2016,09,12,19,18,16.80
2016,09,12,19,19,16.80
2016,09,12,19,20,16.80
2016,09,12,19,21,16.80
2016,09,12,19,22,16.80
2016,09,12,19,23,16.80
2016,09,12,19,24,16.80
2016,09,12,19,25,16.80
2016,09,12,19,26,16.70
2016,09,12,19,27,16.70
2016,09,12,19,28,16.70
2016,09,12,19,29,16.70
2016,09,12,19,30,16.70
2016,09,12,19,31,16.70
2016,09,12,19,32,16.80
2016,09,12,19,33,16.80
2016,09,12,19,34,16.80
2016,09,12,19,35,16.90
2016,09,12,19,36,16.90
2016,09,12,19,37,16.90
2016,09,12,19,38,16.90
2016,09,12,19,39,17.00
2016,09,12,19,40,17.00
2016,09,12,19,41,17.00
2016,09,12,19,42,17.00
2016,09,12,19,43,17.00
2016,09,12,19,44,17.00
2016,09,12,19,45,17.00
2016,09,12,19,46,17.00
2016,09,12,19,47,17.00
2016,09,12,19,48,17.00
2016,09,12,19,49,17.10
2016,09,12,19,50,17.10
2016,09,12,19,51,17.10
2016,09,12,19,52,17.10
2016,09,12,19,53,17.10
2016,09,12,19,54,17.10
2016,09,12,19,55,17.10
2016,09,12,19,56,17.10
2016,09,12,19,57,17.10
2016,09,12,19,58,17.10
2016,09,12,19,59,17.10
2016,09,12,20,00,17.00
2016,09,12,20,01,17.00
2016,09,12,20,02,17.00
2016,09,12,20,03,17.00
2016,09,12,20,04,16.90
2016,09,12,20,05,16.90
2016,09,12,20,06,16.80
2016,09,12,20,07,16.80
2016,09,12,20,08,16.70
2016,09,12,20,09,16.70
2016,09,12,20,10,16.70
2016,09,12,20,11,16.70
2016,09,12,20,12,16.70
2016,09,12,20,13,16.70
2016,09,12,20,14,16.70
2016,09,12,20,15,16.70
2016,09,12,20,16,16.70
2016,09,12,20,18,16.80
2016,09,12,20,19,16.80
2016,09,12,20,21,16.90
2016,09,12,20,22,16.90
2016,09,12,20,23,16.90
2016,09,12,20,24,16.90
2016,09,12,20,26,16.90
2016,09,12,20,27,17.00
2016,09,12,20,28,17.00
2016,09,12,20,29,17.00
2016,09,12,20,31,17.00
2016,09,12,20,32,17.00
2016,09,12,20,33,17.00
2016,09,12,20,34,17.10
2016,09,12,20,36,17.10
2016,09,12,20,37,17.10
2016,09,12,20,38,17.20
2016,09,12,20,39,17.20
2016,09,12,20,41,17.20
2016,09,12,20,42,17.30
2016,09,12,20,43,17.30
2016,09,12,20,44,17.30
2016,09,12,20,46,17.30
2016,09,12,20,47,17.30
2016,09,12,20,48,17.30
2016,09,12,20,49,17.30
2016,09,12,20,51,17.30
2016,09,12,20,52,17.30
2016,09,12,20,53,17.30
2016,09,12,20,54,17.30
2016,09,12,20,56,17.30
2016,09,12,20,57,17.30
2016,09,12,20,58,17.30
2016,09,12,20,59,17.30
2016,09,12,21,01,17.30
2016,09,12,21,02,17.40
2016,09,12,21,03,17.40
2016,09,12,21,04,17.40
2016,09,12,21,05,17.40
2016,09,12,21,07,17.50
2016,09,12,21,08,17.50
2016,09,12,21,09,17.50
2016,09,12,21,11,17.60
2016,09,12,21,12,17.60
2016,09,12,21,13,17.60
2016,09,12,21,14,17.60
2016,09,12,21,16,17.60
2016,09,12,21,17,17.60
2016,09,12,21,18,17.60
2016,09,12,21,19,17.60
2016,09,12,21,21,17.50
2016,09,12,21,22,17.50
2016,09,12,21,23,17.50
2016,09,12,21,24,17.40
2016,09,12,21,26,17.40
2016,09,12,21,27,17.40
2016,09,12,21,28,17.40
2016,09,12,21,29,17.40
2016,09,12,21,31,17.30
2016,09,12,21,32,17.30
2016,09,12,21,33,17.30
2016,09,12,21,34,17.30
2016,09,12,21,36,17.30
2016,09,12,21,37,17.30
2016,09,12,21,38,17.30
2016,09,12,21,39,17.30
2016,09,12,21,41,17.30
2016,09,12,21,42,17.30
2016,09,12,21,43,17.30
2016,09,12,21,44,17.30
2016,09,12,21,45,17.40
2016,09,12,21,46,17.40
2016,09,12,21,47,17.40
2016,09,12,21,48,17.40
2016,09,12,21,49,17.40
2016,09,12,21,51,17.40
2016,09,12,21,52,17.40
2016,09,12,21,53,17.50
2016,09,12,21,54,17.50
2016,09,12,21,55,17.50
2016,09,12,21,56,17.50
2016,09,12,21,57,17.50
2016,09,12,21,58,17.50
2016,09,12,21,59,17.50
2016,09,12,22,00,17.50
2016,09,12,22,01,17.50
2016,09,12,22,02,17.50
2016,09,12,22,03,17.40
2016,09,12,22,04,17.40
2016,09,12,22,06,17.30
2016,09,12,22,07,17.20
2016,09,12,22,08,17.10
2016,09,12,22,09,17.00
2016,09,12,22,10,16.80
2016,09,12,22,11,16.70
2016,09,12,22,12,16.70
2016,09,12,22,13,16.60
2016,09,12,22,14,16.40
2016,09,12,22,15,16.40
2016,09,12,22,16,16.40